SCP
0 0 0 0 0 -0 0 0 0 0 0 0 0 0 0 0 0 0 0 0 0 0 0 0 0 0 0 0 0 0 0 0 0 0 0 0 0 0 0 0 0 0 0 0
0 0 0 0 0 0 0 0 0 0 0 0 0 0 0 0 0 0 0 0 0 0 0 0 0 0 0 0 0 0 0 0 0 -0 0 0 0 0 0 0 0 0 0 0
0 0 0 0 0 0 0 0 0 0 0 0 0 0 0 0 0 0 0 0 0 0 0 0 0 0 0 0 0 0 0 0 0 0 0 0 0 0 0 0 0 0 0 0
0 0 0 0 0 0 0 0 0 0 0 0 0 0 0 0 0 0 0 0 0 0 0 0 0 0 0 0 0 0 0 0 0 -0 0 0 0 0 0 0 0 0 0 0
0 0 0 0 0 0 0 0 0 0 0 0 0 0 0 0 0 0 0 0 0 0 0 0 0 0 0 0 0 0 0 0 0 0 0 0 0 0 0 0 0 0 0 0
0 0 0 0 0 0 0 0 0 0 0 0 0 0 0 0 0 0 0 0 0 0 0 0 0 0 0 0 0 0 0 0 0 0 0 0 0 0 0 0 0 0 0 0
0 0 0 0 0 0 0 0 0 0 0 0 0 0 0 0 0 0 0 0 0 0 0 0 0 0 0 0 0 0 0 0 0 0 0 0 0 0 0 0 0 0 0 0
0 0 0 0 0 0 0 0 0 0 0 0 0 0 0 0 0 0 0 0 0 0 0 0 0 0 0 0 0 0 0 0 0 0 0 0 0 0 0 0 0 0 0 0
0 0 0 0 0 0 0 0 0 0 0 0 0 0 0 0 0 0 0 0 0 0 0 0 0 0 0 0 0 0 0 0 0 0 0 0 0 0 0 0 0 0 0 0
0 0 0 0 0 0 0 0 0 0 0 0 0 0 0 0 0 0 0 0 0 0 0 0 0 0 0 0 0 0 0 0 0 0 0 0 0 0 0 0 0 0 0 0
0 0 0 0 0 0 0 0 0 0 0 0 0 0 0 0 0 0 0 0 0 0 0 0 0 0 0 0 0 0 0 0 0 0 0 0 0 0 0 0 0 0 0 0
0 0 0 0 0 0 0 0 0 0 0 0 0 0 0 0 0 0 0 0 0 0 0 0 0 0 0 0 0 0 0 0 0 0 0 0 0 0 0 0 0 0 0 0
0 0 0 0 0 0 0 0 0 0 0 0 0 0 0 0 0 0 0 0 0 0 0 0 0 0 0 0 0 0 0 0 0 0 0 0 0 0 0 0 0 0 0 0
0 0 0 0 0 0 0 0 0 0 0 0 0 0 0 0 0 0 0 0 0 0 0 0 0 0 0 0 0 0 0 0 0 0 0 0 0 0 0 0 0 0 0 0
0 0 0 0 0 0 0 0 0 0 0 0 0 0 0 0 0 0 0 0 0 0 0 0 0 0 0 0 0 0 0 0 0 0 0 0 0 0 0 0 0 0 0 0
0 0 0 0 0 0 0 0 0 0 0 0 0 0 0 0 0 0 0 0 0 0 0 0 0 0 0 0 0 0 0 0 0 0 0 0 0 0 0 0 0 0 0 0
0 0 0 0 0 0 0 0 0 0 0 0 0 0 0 0 0 0 0 0 0 0 0 0 0 0 0 0 0 0 0 0 0 0 0 0 0 0 0 0 0 0 0 0
0 0 0 0 0 0 0 0 0 0 0 0 0 0 0 0 0 0 0 0 0 0 0 0 0 0 0 0 0 0 0 0 0 0 0 0 0 0 0 0 0 0 0 0
0 0 0 0 0 0 0 0 0 0 0 0 0 0 0 0 0 0 0 0 0 0 0 0 0 0 0 0 0 0 0 0 0 0 0 0 0 0 0 0 0 0 0 0
0 0 0 0 0 0 0 0 0 0 0 0 0 0 0 0 0 0 0 0 0 0 0 0 0 0 0 0 0 0 0 0 0 0 0 0 0 0 0 0 0 0 0 0
0 0 0 0 0 0 0 0 0 0 0 0 0 0 0 0 0 0 0 0 0 0 0 0 0 0 0 0 0 0 0 0 0 0 0 0 0 0 0 0 0 0 0 -0
0 0 0 0 0 0 0 0 0 0 0 0 0 0 0 0 0 0 0 0 0 0 0 0 0 0 0 0 0 0 0 0 0 0 0 0 0 0 0 0 0 0 -0 0
0 0 0 0 0 0 0 0 0 0 0 0 0 0 0 0 0 0 0 0 0 0 0 0 0 0 0 0 0 0 0 0 0 0 0 0 0 0 0 0 0 -0 0 0
0 0 0 0 0 0 0 0 0 0 0 0 0 0 0 0 0 0 0 0 0 0 0 0 0 0 0 0 0 0 0 0 0 0 0 0 0 0 0 0 -0 0 0 0
0 0 0 0 0 0 0 0 0 0 0 0 0 0 0 0 0 0 0 0 0 0 0 0 0 0 0 0 0 0 0 0 -0 0 0 0 0 0 0 -0 0 0 0 0
0 0 0 0 0 0 0 0 0 0 0 0 0 0 0 0 0 0 0 0 0 0 0 0 0 0 0 0 0 0 0 0 -0 0 0 0 0 0 0 -0 0 0 0 0
0 0 0 0 0 0 0 0 0 0 0 0 0 0 0 0 0 0 0 0 0 0 0 0 0 0 0 0 0 0 0 0 -0 0 0 0 0 -0 0 -0 0 0 0 0
Wind_Speed_500mb
34 34 36 38 38 32 22 8 14 10 11 23 7 11 4 4 5 8 8 13 13 11 8 18 16 9 9 10 12 18 14 14 22 6 2 9 16 25 23 17 20 19 15 23
31 31 31 31 34 34 35 19 21 11 7 14 12 6 7 7 9 8 6 8 6 1 12 7 7 10 14 6 8 13 18 11 16 28 11 1 15 6 11 11 13 23 20 11
28 30 28 26 25 25 25 14 7 6 2 4 15 3 15 11 6 17 14 16 8 17 17 14 13 12 11 3 6 2 2 16 27 22 30 3 17 19 14 14 13 23 23 26
30 29 27 23 20 17 15 5 7 7 5 13 14 8 10 16 10 12 9 11 18 20 15 18 18 11 9 19 11 10 7 21 26 31 25 17 29 29 26 25 25 25 26 24
35 31 26 21 16 9 4 13 10 3 10 10 13 10 13 13 11 7 20 12 22 11 15 19 20 13 13 13 13 10 5 17 19 26 30 31 23 28 27 22 20 22 19 18
31 28 22 18 12 4 6 7 10 10 4 13 13 8 4 12 9 15 14 14 21 18 12 9 15 14 15 19 15 23 10 16 19 25 20 18 23 15 13 5 5 10 17 23
30 24 20 15 9 7 2 10 8 17 21 9 16 6 12 17 17 18 16 14 22 10 6 7 17 21 18 21 19 13 21 11 19 17 23 17 6 9 11 13 11 8 9 20
31 29 23 16 10 7 1 8 6 15 17 25 19 20 19 21 22 23 25 20 7 11 8 13 22 21 19 14 5 12 18 20 6 4 12 26 21 5 7 13 19 18 17 22
36 33 28 21 16 11 4 9 4 8 17 6 12 14 11 18 14 12 17 7 8 8 18 17 18 17 15 6 15 8 10 18 10 17 13 13 15 9 11 11 6 19 24 33
37 33 29 24 18 15 11 9 10 5 19 12 7 10 14 8 13 12 6 7 12 12 17 17 14 17 13 10 13 6 12 13 20 17 12 5 14 9 9 10 10 27 35 34
39 36 31 26 21 17 11 11 15 7 16 15 10 12 14 14 12 15 7 8 17 15 16 9 8 12 2 10 10 8 9 6 6 11 18 11 11 4 9 17 28 33 30 31
42 36 33 29 23 19 12 7 12 13 13 15 9 13 18 18 16 17 6 7 6 12 4 6 6 10 10 10 5 6 6 10 7 8 7 6 16 14 13 17 24 28 31 33
43 39 33 29 25 23 19 7 8 5 16 27 24 14 8 9 18 24 14 11 6 2 8 13 4 9 9 6 8 7 7 4 8 7 8 8 12 15 14 21 20 27 28 32
44 41 37 32 28 26 23 11 7 7 12 15 5 5 4 8 5 19 25 8 5 8 11 21 11 6 7 6 5 6 11 3 6 10 10 13 8 13 18 22 23 27 30 32
40 42 43 37 30 29 24 17 13 15 6 7 13 9 10 8 13 13 16 19 14 18 15 13 13 9 5 12 10 10 7 3 4 4 15 10 17 15 17 22 26 28 31 33
33 39 38 37 33 26 22 10 18 19 17 9 7 5 10 6 11 14 18 21 18 19 11 11 4 1 9 5 7 9 8 5 1 8 7 10 10 9 16 24 27 26 26 22
35 34 24 34 33 33 25 9 10 13 17 4 8 10 9 10 14 13 17 18 15 16 13 11 13 9 12 9 9 21 9 8 6 3 5 1 8 17 21 24 23 21 11 19
34 30 23 24 33 31 31 14 3 11 16 6 5 7 9 17 18 17 17 18 15 16 15 4 16 13 13 6 18 14 14 14 10 7 9 6 10 15 20 20 15 15 18 16
30 32 27 22 21 15 11 12 15 18 7 4 11 11 5 18 19 13 14 17 11 9 13 20 9 11 8 7 21 18 18 12 10 4 3 9 13 18 16 13 15 15 15 12
40 41 12 10 12 19 20 10 7 8 7 11 14 16 4 16 15 16 11 14 10 8 14 11 9 15 20 14 12 17 16 13 5 7 7 14 15 16 12 13 15 11 9 10
27 8 9 26 38 12 7 7 7 7 9 15 24 31 12 13 12 6 10 6 7 8 10 9 9 8 24 21 25 24 19 15 13 10 7 10 12 10 8 10 9 9 7 9
12 20 31 26 6 4 7 8 11 11 8 13 20 18 22 12 11 6 8 6 6 4 8 7 7 11 37 34 30 24 20 16 12 8 8 10 11 10 7 6 7 7 7 12
31 7 8 9 8 7 9 15 8 9 12 12 14 13 19 9 19 7 8 8 10 6 8 5 5 33 40 36 28 24 18 14 10 7 9 11 10 12 7 8 10 5 10 14
3 8 8 9 9 9 8 2 8 7 8 10 18 19 22 8 17 5 8 5 7 8 10 12 13 30 37 31 28 24 19 13 7 6 8 10 9 8 8 11 9 12 16 32
5 7 6 10 5 6 5 0 4 5 3 8 17 16 5 6 5 7 5 9 10 9 7 7 40 44 40 35 28 23 20 13 6 4 6 7 6 9 9 13 14 18 38 18
6 7 6 8 7 9 7 5 7 2 3 8 7 8 9 8 6 11 13 6 9 7 11 20 43 45 36 32 25 22 19 14 8 5 6 6 7 10 13 16 19 28 35 22
6 7 13 5 7 8 8 7 3 10 10 4 3 8 7 10 9 9 7 8 8 17 19 33 41 42 36 31 26 23 20 15 9 6 7 5 7 12 16 18 23 34 32 25
Wind_Direction_500mb
336 343 346 347 348 347 354 298 262 358 327 263 239 291 37 8 256 239 253 283 297 287 344 296 293 281 41 20 313 294 39 304 288 175 263 297 279 287 302 285 284 276 312 276
332 337 344 348 350 357 356 310 293 313 308 272 222 81 225 262 258 244 278 264 262 252 286 296 263 303 77 347 304 352 9 259 275 279 164 331 280 247 292 306 291 271 283 281
328 332 336 344 350 349 351 300 277 148 258 313 311 311 247 237 197 272 271 281 278 267 262 220 279 262 114 356 339 27 296 272 279 278 303 272 271 257 236 275 284 283 281 320
311 319 322 332 345 349 347 268 75 329 315 93 323 281 307 275 239 213 256 261 253 267 268 269 258 250 251 185 175 239 273 265 271 277 295 300 286 284 278 267 260 266 289 307
295 302 306 315 328 357 346 312 333 264 273 287 277 160 264 284 281 256 278 242 292 285 269 284 297 331 297 290 164 270 209 276 274 279 276 266 283 285 281 273 279 287 284 290
287 287 298 303 310 9 306 315 287 281 270 233 254 301 341 306 347 265 281 312 293 262 342 13 346 322 297 291 285 294 267 283 276 281 307 301 277 308 290 323 290 282 297 353
276 274 283 290 295 264 331 289 286 274 273 219 289 336 281 279 278 282 291 295 273 38 332 308 271 267 261 265 253 251 275 264 283 291 298 286 108 71 17 320 289 291 317 347
260 260 262 264 262 243 121 308 290 284 279 284 287 246 280 281 259 241 250 261 296 316 285 272 251 235 230 202 289 254 240 263 265 240 271 256 178 84 41 16 329 41 2 342
251 248 241 238 240 235 189 267 261 273 287 316 20 291 295 287 266 193 230 229 259 253 265 248 247 268 311 206 157 188 215 244 199 263 262 305 156 99 5 335 245 25 349 333
239 235 228 228 232 230 200 265 230 257 271 285 325 284 336 336 289 280 181 180 230 229 249 255 284 285 307 268 289 206 181 218 227 233 247 278 61 30 346 271 25 339 337 324
230 225 217 219 218 220 172 251 236 220 269 273 288 267 283 275 256 279 33 248 210 240 239 277 260 279 332 277 269 309 291 252 240 263 240 237 25 260 359 3 333 329 323 348
218 213 214 214 212 211 192 229 257 227 252 291 288 242 255 258 269 297 259 308 267 0 279 281 257 261 281 304 211 299 255 2 312 342 32 40 24 4 346 336 323 333 338 335
208 203 208 209 207 201 180 186 240 274 270 273 233 238 233 254 256 225 252 197 17 339 328 319 13 266 320 276 313 285 152 13 269 347 68 356 325 328 351 336 342 330 329 330
200 197 201 205 205 200 195 206 217 246 270 281 158 229 233 239 276 208 221 260 324 285 274 276 275 238 269 306 355 297 29 53 339 296 273 326 96 28 351 331 331 329 328 330
196 197 203 203 205 202 207 220 232 205 282 291 290 256 246 282 228 210 211 220 237 247 232 229 249 286 315 252 320 273 141 306 228 20 35 325 12 2 344 340 339 334 334 337
189 194 198 201 205 210 212 240 247 240 222 285 286 11 235 264 207 213 212 202 216 245 255 259 280 353 273 214 241 89 102 117 80 31 334 327 336 311 343 342 341 341 342 350
182 181 187 205 201 196 180 197 158 201 189 193 270 219 175 202 179 173 174 187 214 237 232 244 264 175 215 261 252 137 155 145 118 71 308 126 351 337 341 343 343 350 19 358
178 184 182 190 193 196 200 187 156 119 163 167 258 241 184 183 195 178 184 199 210 206 250 186 239 144 225 259 121 140 156 142 123 89 59 37 350 341 343 353 11 25 5 18
161 168 167 155 160 167 207 213 198 192 179 214 233 262 99 174 217 158 187 215 211 186 234 231 201 218 214 198 150 171 176 181 162 139 59 352 341 346 353 9 15 15 14 15
170 164 141 110 148 142 131 123 149 203 192 221 251 266 209 195 185 192 188 201 229 216 210 149 230 248 107 147 168 155 148 147 169 279 356 342 346 352 3 37 3 24 21 23
142 110 81 143 140 124 128 135 192 187 215 217 231 231 210 201 223 185 222 259 224 235 183 222 215 200 154 155 155 151 139 124 105 94 51 12 1 3 24 18 12 59 33 68
132 133 128 140 122 144 182 188 174 218 239 184 220 194 217 167 201 175 279 206 268 244 172 232 234 123 145 158 159 149 140 129 113 83 49 30 31 34 31 43 67 77 73 110
119 93 133 166 168 203 213 180 198 201 197 167 178 171 182 152 203 188 226 228 222 132 197 245 67 131 144 158 162 156 150 142 121 80 51 33 51 22 63 79 109 105 106 121
144 149 162 221 181 220 211 276 65 131 105 167 183 170 192 186 183 208 215 226 233 224 224 183 140 150 150 160 165 163 159 150 131 78 46 34 62 62 81 108 129 112 112 124
214 202 212 214 205 149 114 310 156 143 194 233 206 177 156 128 175 226 226 199 226 224 213 146 130 149 161 165 166 165 156 152 129 73 42 48 47 98 107 129 126 120 129 122
239 230 234 216 203 166 155 187 190 210 251 229 244 170 150 216 194 208 204 220 220 133 146 126 140 152 160 159 158 159 152 145 131 90 65 67 82 119 131 140 132 130 128 127
247 225 217 254 193 185 172 146 189 271 229 215 168 210 187 143 203 219 198 228 120 137 153 154 159 159 158 150 146 147 147 142 125 102 79 104 113 130 138 144 142 145 145 140
Wind_Speed_850mb
34 34 36 38 38 32 22 8 14 10 11 23 7 11 4 4 5 8 8 13 13 11 8 18 16 9 9 10 12 18 14 14 22 6 2 9 16 25 23 17 20 19 15 23
31 31 31 31 34 34 35 19 21 11 7 14 12 6 7 7 9 8 6 8 6 1 12 7 7 10 14 6 8 13 18 11 16 28 11 1 15 6 11 11 13 23 20 11
28 30 28 26 25 25 25 14 7 6 2 4 15 3 15 11 6 17 14 16 8 17 17 14 13 12 11 3 6 2 2 16 27 22 30 3 17 19 14 14 13 23 23 26
30 29 27 23 20 17 15 5 7 7 5 13 14 8 10 16 10 12 9 11 18 20 15 18 18 11 9 19 11 10 7 21 26 31 25 17 29 29 26 25 25 25 26 24
35 31 26 21 16 9 4 13 10 3 10 10 13 10 13 13 11 7 20 12 22 11 15 19 20 13 13 13 13 10 5 17 19 26 30 31 23 28 27 22 20 22 19 18
31 28 22 18 12 4 6 7 10 10 4 13 13 8 4 12 9 15 14 14 21 18 12 9 15 14 15 19 15 23 10 16 19 25 20 18 23 15 13 5 5 10 17 23
30 24 20 15 9 7 2 10 8 17 21 9 16 6 12 17 17 18 16 14 22 10 6 7 17 21 18 21 19 13 21 11 19 17 23 17 6 9 11 13 11 8 9 20
31 29 23 16 10 7 1 8 6 15 17 25 19 20 19 21 22 23 25 20 7 11 8 13 22 21 19 14 5 12 18 20 6 4 12 26 21 5 7 13 19 18 17 22
36 33 28 21 16 11 4 9 4 8 17 6 12 14 11 18 14 12 17 7 8 8 18 17 18 17 15 6 15 8 10 18 10 17 13 13 15 9 11 11 6 19 24 33
37 33 29 24 18 15 11 9 10 5 19 12 7 10 14 8 13 12 6 7 12 12 17 17 14 17 13 10 13 6 12 13 20 17 12 5 14 9 9 10 10 27 35 34
39 36 31 26 21 17 11 11 15 7 16 15 10 12 14 14 12 15 7 8 17 15 16 9 8 12 2 10 10 8 9 6 6 11 18 11 11 4 9 17 28 33 30 31
42 36 33 29 23 19 12 7 12 13 13 15 9 13 18 18 16 17 6 7 6 12 4 6 6 10 10 10 5 6 6 10 7 8 7 6 16 14 13 17 24 28 31 33
43 39 33 29 25 23 19 7 8 5 16 27 24 14 8 9 18 24 14 11 6 2 8 13 4 9 9 6 8 7 7 4 8 7 8 8 12 15 14 21 20 27 28 32
44 41 37 32 28 26 23 11 7 7 12 15 5 5 4 8 5 19 25 8 5 8 11 21 11 6 7 6 5 6 11 3 6 10 10 13 8 13 18 22 23 27 30 32
40 42 43 37 30 29 24 17 13 15 6 7 13 9 10 8 13 13 16 19 14 18 15 13 13 9 5 12 10 10 7 3 4 4 15 10 17 15 17 22 26 28 31 33
33 39 38 37 33 26 22 10 18 19 17 9 7 5 10 6 11 14 18 21 18 19 11 11 4 1 9 5 7 9 8 5 1 8 7 10 10 9 16 24 27 26 26 22
35 34 24 34 33 33 25 9 10 13 17 4 8 10 9 10 14 13 17 18 15 16 13 11 13 9 12 9 9 21 9 8 6 3 5 1 8 17 21 24 23 21 11 19
34 30 23 24 33 31 31 14 3 11 16 6 5 7 9 17 18 17 17 18 15 16 15 4 16 13 13 6 18 14 14 14 10 7 9 6 10 15 20 20 15 15 18 16
30 32 27 22 21 15 11 12 15 18 7 4 11 11 5 18 19 13 14 17 11 9 13 20 9 11 8 7 21 18 18 12 10 4 3 9 13 18 16 13 15 15 15 12
40 41 12 10 12 19 20 10 7 8 7 11 14 16 4 16 15 16 11 14 10 8 14 11 9 15 20 14 12 17 16 13 5 7 7 14 15 16 12 13 15 11 9 10
27 8 9 26 38 12 7 7 7 7 9 15 24 31 12 13 12 6 10 6 7 8 10 9 9 8 24 21 25 24 19 15 13 10 7 10 12 10 8 10 9 9 7 9
12 20 31 26 6 4 7 8 11 11 8 13 20 18 22 12 11 6 8 6 6 4 8 7 7 11 37 34 30 24 20 16 12 8 8 10 11 10 7 6 7 7 7 12
31 7 8 9 8 7 9 15 8 9 12 12 14 13 19 9 19 7 8 8 10 6 8 5 5 33 40 36 28 24 18 14 10 7 9 11 10 12 7 8 10 5 10 14
3 8 8 9 9 9 8 2 8 7 8 10 18 19 22 8 17 5 8 5 7 8 10 12 13 30 37 31 28 24 19 13 7 6 8 10 9 8 8 11 9 12 16 32
5 7 6 10 5 6 5 0 4 5 3 8 17 16 5 6 5 7 5 9 10 9 7 7 40 44 40 35 28 23 20 13 6 4 6 7 6 9 9 13 14 18 38 18
6 7 6 8 7 9 7 5 7 2 3 8 7 8 9 8 6 11 13 6 9 7 11 20 43 45 36 32 25 22 19 14 8 5 6 6 7 10 13 16 19 28 35 22
6 7 13 5 7 8 8 7 3 10 10 4 3 8 7 10 9 9 7 8 8 17 19 33 41 42 36 31 26 23 20 15 9 6 7 5 7 12 16 18 23 34 32 25
Wind_Direction_850mb
336 343 346 347 348 347 354 298 262 358 327 263 239 291 37 8 256 239 253 283 297 287 344 296 293 281 41 20 313 294 39 304 288 175 263 297 279 287 302 285 284 276 312 276
332 337 344 348 350 357 356 310 293 313 308 272 222 81 225 262 258 244 278 264 262 252 286 296 263 303 77 347 304 352 9 259 275 279 164 331 280 247 292 306 291 271 283 281
328 332 336 344 350 349 351 300 277 148 258 313 311 311 247 237 197 272 271 281 278 267 262 220 279 262 114 356 339 27 296 272 279 278 303 272 271 257 236 275 284 283 281 320
311 319 322 332 345 349 347 268 75 329 315 93 323 281 307 275 239 213 256 261 253 267 268 269 258 250 251 185 175 239 273 265 271 277 295 300 286 284 278 267 260 266 289 307
295 302 306 315 328 357 346 312 333 264 273 287 277 160 264 284 281 256 278 242 292 285 269 284 297 331 297 290 164 270 209 276 274 279 276 266 283 285 281 273 279 287 284 290
287 287 298 303 310 9 306 315 287 281 270 233 254 301 341 306 347 265 281 312 293 262 342 13 346 322 297 291 285 294 267 283 276 281 307 301 277 308 290 323 290 282 297 353
276 274 283 290 295 264 331 289 286 274 273 219 289 336 281 279 278 282 291 295 273 38 332 308 271 267 261 265 253 251 275 264 283 291 298 286 108 71 17 320 289 291 317 347
260 260 262 264 262 243 121 308 290 284 279 284 287 246 280 281 259 241 250 261 296 316 285 272 251 235 230 202 289 254 240 263 265 240 271 256 178 84 41 16 329 41 2 342
251 248 241 238 240 235 189 267 261 273 287 316 20 291 295 287 266 193 230 229 259 253 265 248 247 268 311 206 157 188 215 244 199 263 262 305 156 99 5 335 245 25 349 333
239 235 228 228 232 230 200 265 230 257 271 285 325 284 336 336 289 280 181 180 230 229 249 255 284 285 307 268 289 206 181 218 227 233 247 278 61 30 346 271 25 339 337 324
230 225 217 219 218 220 172 251 236 220 269 273 288 267 283 275 256 279 33 248 210 240 239 277 260 279 332 277 269 309 291 252 240 263 240 237 25 260 359 3 333 329 323 348
218 213 214 214 212 211 192 229 257 227 252 291 288 242 255 258 269 297 259 308 267 0 279 281 257 261 281 304 211 299 255 2 312 342 32 40 24 4 346 336 323 333 338 335
208 203 208 209 207 201 180 186 240 274 270 273 233 238 233 254 256 225 252 197 17 339 328 319 13 266 320 276 313 285 152 13 269 347 68 356 325 328 351 336 342 330 329 330
200 197 201 205 205 200 195 206 217 246 270 281 158 229 233 239 276 208 221 260 324 285 274 276 275 238 269 306 355 297 29 53 339 296 273 326 96 28 351 331 331 329 328 330
196 197 203 203 205 202 207 220 232 205 282 291 290 256 246 282 228 210 211 220 237 247 232 229 249 286 315 252 320 273 141 306 228 20 35 325 12 2 344 340 339 334 334 337
189 194 198 201 205 210 212 240 247 240 222 285 286 11 235 264 207 213 212 202 216 245 255 259 280 353 273 214 241 89 102 117 80 31 334 327 336 311 343 342 341 341 342 350
182 181 187 205 201 196 180 197 158 201 189 193 270 219 175 202 179 173 174 187 214 237 232 244 264 175 215 261 252 137 155 145 118 71 308 126 351 337 341 343 343 350 19 358
178 184 182 190 193 196 200 187 156 119 163 167 258 241 184 183 195 178 184 199 210 206 250 186 239 144 225 259 121 140 156 142 123 89 59 37 350 341 343 353 11 25 5 18
161 168 167 155 160 167 207 213 198 192 179 214 233 262 99 174 217 158 187 215 211 186 234 231 201 218 214 198 150 171 176 181 162 139 59 352 341 346 353 9 15 15 14 15
170 164 141 110 148 142 131 123 149 203 192 221 251 266 209 195 185 192 188 201 229 216 210 149 230 248 107 147 168 155 148 147 169 279 356 342 346 352 3 37 3 24 21 23
142 110 81 143 140 124 128 135 192 187 215 217 231 231 210 201 223 185 222 259 224 235 183 222 215 200 154 155 155 151 139 124 105 94 51 12 1 3 24 18 12 59 33 68
132 133 128 140 122 144 182 188 174 218 239 184 220 194 217 167 201 175 279 206 268 244 172 232 234 123 145 158 159 149 140 129 113 83 49 30 31 34 31 43 67 77 73 110
119 93 133 166 168 203 213 180 198 201 197 167 178 171 182 152 203 188 226 228 222 132 197 245 67 131 144 158 162 156 150 142 121 80 51 33 51 22 63 79 109 105 106 121
144 149 162 221 181 220 211 276 65 131 105 167 183 170 192 186 183 208 215 226 233 224 224 183 140 150 150 160 165 163 159 150 131 78 46 34 62 62 81 108 129 112 112 124
214 202 212 214 205 149 114 310 156 143 194 233 206 177 156 128 175 226 226 199 226 224 213 146 130 149 161 165 166 165 156 152 129 73 42 48 47 98 107 129 126 120 129 122
239 230 234 216 203 166 155 187 190 210 251 229 244 170 150 216 194 208 204 220 220 133 146 126 140 152 160 159 158 159 152 145 131 90 65 67 82 119 131 140 132 130 128 127
247 225 217 254 193 185 172 146 189 271 229 215 168 210 187 143 203 219 198 228 120 137 153 154 159 159 158 150 146 147 147 142 125 102 79 104 113 130 138 144 142 145 145 140